GW3608 Weather Reports


Display with metric or nautical units.
time (UTC)temp
F
wind
direction
speed
MPH
gust
MPH
rain 1hr
in
rain 24hr
in
rain mn
in
humidity
%
barometer
mb
20260502163030 46 20 2.0 5.0 0.00 0.16 0.02 46 1013.4
20260502161508 46 86 2.0 10.0 0.00 0.16 0.02 45 1013.5
20260502151527 46 32 1.0 4.0 0.00 0.16 0.02 53 1013.6
20260502123019 40 285 1.0 8.0 0.00 0.16 0.02 80 1013.9
20260502121520 39 35 0.0 5.0 0.00 0.16 0.02 84 1013.7
20260502114531 40 69 2.0 6.0 0.00 0.16 0.02 86 1013.6
20260502113029 39 347 0.0 7.0 0.00 0.16 0.02 88 1013.8
20260502111518 38 360 0.0 4.0 0.00 0.16 0.02 91 1013.6
20260502110022 38 346 0.0 3.0 0.00 0.16 0.02 91 1013.4
20260502104505 38 352 0.0 2.0 0.00 0.16 0.02 91 1013.4
20260502103008 38 348 0.0 2.0 0.00 0.16 0.02 91 1013.2
20260502101503 38 324 0.0 3.0 0.00 0.16 0.02 91 1013.2
20260502091512 38 5 0.0 0.0 0.00 0.16 0.02 92 1012.8
20260502071506 38 5 0.0 3.0 0.00 0.16 0.02 92 1012.3
20260502070012 38 9 0.0 4.0 0.00 0.16 0.02 92 1012.2
20260502064535 38 334 0.0 2.0 0.00 0.16 0.02 92 1012.1
20260502063023 39 352 0.0 3.0 0.00 0.16 0.02 92 1012.2
20260502061505 39 11 2.0 5.0 0.00 0.16 0.02 92 1012.4
20260502060018 39 278 1.0 3.0 0.00 0.16 0.02 92 1012.2
20260502054515 39 333 1.0 4.0 0.00 0.16 0.02 92 1012.3
20260502053018 39 11 2.0 9.0 0.01 0.16 0.02 92 1012.0
20260502051529 40 299 1.0 5.0 0.02 0.16 0.02 92 1012.0
20260502050006 41 28 0.0 2.0 0.02 0.16 0.02 93 1012.3
20260502044510 41 269 0.0 2.0 0.02 0.16 0.02 93 1012.3
20260502043013 41 238 0.0 2.0 0.01 0.15 0.01 93 1012.4
20260502041526 41 265 0.0 2.0 0.02 0.14 0.00 93 1012.1
20260502040023 41 267 0.0 4.0 0.02 0.14 0.00 93 1012.0
20260502034508 41 267 0.0 4.0 0.02 0.14 0.14 93 1011.9
20260502033016 42 267 1.0 6.0 0.02 0.14 0.14 93 1011.8
20260502031517 42 272 0.0 1.0 0.01 0.12 0.12 93 1012.1
20260502030021 43 288 0.0 0.0 0.02 0.12 0.12 93 1012.0
20260502024522 43 288 0.0 0.0 0.02 0.12 0.12 93 1011.9
20260502023011 43 257 0.0 0.0 0.03 0.12 0.12 93 1012.1
20260502021512 43 167 0.0 0.0 0.02 0.11 0.11 93 1012.2
20260502020017 43 167 0.0 0.0 0.02 0.10 0.10 92 1012.1
20260502014523 43 167 0.0 0.0 0.03 0.10 0.10 92 1011.9
20260502013026 43 167 0.0 0.0 0.03 0.09 0.09 92 1012.0
20260502011512 43 168 0.0 0.0 0.03 0.09 0.09 91 1011.9
20260502010027 43 163 0.0 0.0 0.03 0.08 0.08 91 1011.9
20260502004526 43 252 0.0 0.0 0.03 0.07 0.07 91 1011.9
20260502003024 43 263 0.0 0.0 0.03 0.06 0.06 90 1011.8
20260502001528 43 247 0.0 2.0 0.05 0.06 0.06 89 1011.7
20260502000012 43 244 0.0 2.0 0.05 0.05 0.05 88 1011.7
20260501234517 43 247 0.0 1.0 0.04 0.04 0.04 87 1011.6
20260501233023 44 254 0.0 2.0 0.03 0.03 0.03 84 1011.6
20260501231526 45 232 0.0 3.0 0.01 0.01 0.01 79 1011.6
20260501230028 46 258 0.0 3.0 0.00 0.00 0.00 75 1011.4
20260501224518 47 261 0.0 4.0 0.00 0.00 0.00 68 1011.3
20260501223018 48 267 0.0 3.0 0.00 0.00 0.00 65 1011.1
20260501221523 49 263 0.0 3.0 0.00 0.00 0.00 61 1011.0
20260501220006 49 267 0.0 2.0 0.00 0.00 0.00 60 1011.1
20260501214512 49 259 0.0 2.0 0.00 0.00 0.00 60 1011.2
20260501213016 49 292 2.0 6.0 0.00 0.00 0.00 58 1011.2
20260501211524 50 257 0.0 3.0 0.00 0.00 0.00 59 1011.1
20260501210026 49 284 0.0 2.0 0.00 0.00 0.00 59 1011.1
20260501204515 49 263 0.0 3.0 0.00 0.00 0.00 62 1011.3
20260501203015 49 315 0.0 3.0 0.00 0.00 0.00 59 1011.1
20260501201518 48 5 0.0 2.0 0.00 0.00 0.00 60 1011.2
20260501200026 48 12 0.0 4.0 0.00 0.00 0.00 59 1011.4
20260501194527 48 250 0.0 6.0 0.00 0.00 0.00 61 1011.4
20260501193012 49 344 1.0 4.0 0.00 0.00 0.00 59 1011.3
20260501191522 48 248 0.0 4.0 0.00 0.00 0.00 65 1011.5
20260501190022 49 157 0.0 6.0 0.00 0.00 0.00 59 1011.6
20260501184537 50 266 1.0 9.0 0.00 0.00 0.00 53 1011.6
20260501183029 51 246 0.0 5.0 0.00 0.00 0.00 51 1011.4
20260501181526 50 247 0.0 3.0 0.00 0.00 0.00 52 1011.5
20260501180020 50 301 0.0 3.0 0.00 0.00 0.00 53 1011.4
20260501174524 50 267 0.0 2.0 0.00 0.00 0.00 53 1011.6
20260501173025 51 312 1.0 4.0 0.00 0.00 0.00 51 1011.4
20260501171541 50 323 0.0 3.0 0.00 0.00 0.00 59 1011.6